Terminal Aerodrome Forecast
Issued by NWS Sterling, VA

Current Version | Previous Version | Graphics & Text | Print | Product List | Glossary On
Versions: 1 2 3 4 5 6 7 8 9 10 11 12 13 14 15 16 17 18 19 20 21 22 23 24 25 26 27 28 29 30 31 32
000
FTUS41 KLWX 031143 RRB
TAFDCA
TAF
KDCA 031143Z 0312/0412 01005KT P6SM OVC250
     FM031500 15007KT P6SM OVC080
     FM031900 16007KT 6SM BR OVC040
      TEMPO 0319/0323 6SM -SNPL OVC030
     FM032300 17007KT 2SM BR OVC015
      TEMPO 0323/0401 2SM -RA BR OVC008
     FM040800 20008KT 2SM -RA OVC004=

USA.gov is the U.S. government's official web portal to all federal, state and local government web resources and services.